Theta_e
308 308 308 309 309 310 310 311 312 313 316 317 318 318 317 317 316 319 320 317 314 312 313 316 316 317 318 319 318 317 317 318 319 319 319 317 316 317 316 315 314 313 312 311 311
309 308 308 309 309 310 310 311 312 313 316 317 318 318 318 317 316 320 317 313 313 312 315 316 317 316 318 319 320 318 320 319 317 317 318 317 317 316 316 315 314 312 311 312 312
309 309 309 309 309 310 311 311 312 314 316 318 319 318 318 315 321 318 313 313 312 312 314 315 316 316 317 318 319 319 317 315 316 318 317 317 317 318 317 316 315 314 311 311 311
310 310 309 309 308 309 311 312 314 315 316 318 319 318 318 317 322 317 311 313 312 312 315 316 316 316 316 318 318 318 316 316 318 317 318 318 318 317 316 314 312 310 311 311 309
311 311 310 310 309 310 311 312 314 317 317 318 319 318 318 320 320 315 311 312 312 314 316 317 315 316 316 317 317 317 317 317 317 317 317 316 317 317 315 310 309 309 310 308 308
313 312 312 311 311 312 312 313 314 316 318 318 318 317 319 321 316 315 313 311 315 315 316 316 315 315 316 316 317 317 317 317 317 317 316 316 316 315 315 309 308 309 308 306 306
317 313 312 312 312 312 313 313 314 316 317 318 317 315 319 320 318 315 312 313 314 315 316 315 315 315 316 317 315 316 316 316 315 315 316 315 315 315 312 310 309 309 306 306 305
317 317 314 313 313 313 313 313 314 316 318 319 318 317 319 315 319 315 313 313 313 313 315 314 315 316 317 315 316 316 317 318 318 315 314 315 317 317 310 310 309 308 306 305 304
316 316 316 313 313 314 314 313 314 316 318 319 319 318 320 313 316 317 315 314 313 313 313 313 316 317 315 315 317 317 318 319 318 315 314 313 318 313 311 310 310 308 307 306 304
315 315 316 313 313 314 314 313 315 316 319 317 316 318 315 316 314 316 314 314 314 314 314 315 315 315 315 315 319 321 320 320 320 315 315 314 313 313 311 310 310 309 307 306 304
317 316 314 315 314 315 315 320 322 321 319 320 320 320 315 310 312 314 313 313 315 315 316 315 316 317 317 316 317 318 318 318 320 314 316 315 315 316 311 310 310 309 308 306 304
318 316 314 315 315 316 317 319 319 315 320 320 319 319 313 311 313 314 313 314 315 317 316 315 317 317 318 318 318 318 318 318 318 313 314 315 315 316 312 311 310 311 308 306 302
319 316 315 315 316 317 317 318 320 316 321 317 321 320 316 311 315 314 312 314 315 317 317 318 318 317 317 318 318 318 318 317 318 315 314 313 314 315 315 313 311 310 309 306 302
321 317 315 314 316 316 317 316 319 319 320 315 322 321 313 314 316 313 312 314 315 316 317 317 317 316 317 317 316 318 317 317 317 317 318 314 319 319 318 316 312 311 308 305 302
320 318 316 314 316 316 316 315 319 321 318 318 319 315 314 317 314 311 310 311 315 314 317 318 315 315 317 317 316 317 315 317 317 317 319 319 319 319 317 318 315 311 307 304 302
320 320 316 315 315 317 317 317 321 322 321 321 315 316 316 316 312 309 310 309 312 315 314 315 312 314 315 312 314 314 316 316 316 318 321 320 321 320 320 318 317 311 308 304 302
317 318 317 316 316 317 318 320 319 320 314 317 318 317 318 318 313 312 311 311 315 316 316 314 314 314 313 314 313 315 318 323 322 320 322 317 320 321 318 315 315 312 308 305 301
314 315 318 316 316 317 319 319 319 317 314 318 318 318 320 318 316 313 312 313 312 314 317 318 321 315 312 316 317 314 318 323 326 326 323 312 317 319 313 309 310 310 308 305 301
314 314 317 317 317 317 321 320 317 316 315 315 318 320 320 317 316 314 314 315 314 313 318 320 322 315 313 314 317 316 317 318 319 309 315 319 315 314 309 308 308 307 305 304 301
314 314 317 318 317 316 322 318 317 316 316 314 318 320 322 319 317 315 315 316 317 314 315 321 324 316 309 311 312 315 315 318 316 318 322 322 321 320 312 310 306 307 305 303 301
313 314 315 317 317 319 322 317 317 316 316 317 318 317 317 321 317 316 319 318 316 316 314 318 320 314 311 312 315 313 314 315 317 318 322 322 321 315 315 311 307 307 305 303 301
312 316 314 318 320 320 321 318 316 317 318 319 320 318 320 317 318 317 318 319 316 316 316 317 319 317 313 311 311 314 315 315 318 319 317 317 322 311 311 311 308 307 305 302 301
311 313 313 318 323 322 319 319 318 318 319 320 321 319 319 320 320 318 318 317 316 316 316 317 319 321 320 314 310 312 312 315 316 315 320 319 321 307 307 309 307 306 304 303 301
309 314 313 316 318 320 320 319 320 317 318 319 320 320 320 321 320 320 318 317 314 315 316 316 319 320 325 321 316 313 312 313 315 317 317 319 319 311 309 308 307 305 304 303 301
308 311 313 317 317 318 320 320 320 321 317 318 320 321 322 323 322 322 318 314 312 314 315 317 321 320 320 320 318 314 313 313 314 315 318 318 317 316 312 307 307 306 305 304 302
307 309 309 312 314 315 317 317 318 319 319 319 319 320 320 323 322 323 320 318 316 310 311 312 318 318 320 318 320 321 319 313 312 313 315 315 316 315 312 308 306 306 305 304 302
305 304 307 310 311 313 312 315 316 317 317 318 318 319 320 320 319 319 318 318 317 313 311 313 315 317 323 318 319 321 320 320 318 313 314 315 315 312 311 307 306 305 305 304 303
Wind_Speed
1 1 1 3 3 4 4 4 5 6 8 10 12 12 13 13 12 5 2 1 2 1 0 2 2 2 4 2 2 2 2 3 2 1 6 7 5 1 1 6 5 5 5 5 4
2 1 1 2 3 4 5 5 6 7 8 10 12 13 13 14 10 7 3 3 2 2 1 5 2 1 2 1 1 1 2 6 7 7 5 8 6 9 4 7 4 7 9 8 9
4 4 3 4 4 4 5 6 7 7 8 10 12 13 13 12 4 3 1 1 2 4 2 3 5 3 2 2 2 1 2 5 5 8 9 6 1 2 3 5 6 8 9 8 11
7 6 5 5 6 7 7 7 7 8 9 10 13 13 12 4 3 1 1 2 3 2 1 2 4 3 2 3 3 3 2 5 4 3 3 4 2 3 5 4 8 10 11 9 9
10 8 7 7 7 7 8 8 8 9 10 11 12 13 5 3 1 0 1 3 4 3 4 2 4 2 4 3 1 4 3 2 5 3 4 5 3 5 5 9 9 8 9 8 9
12 11 9 8 7 7 8 8 8 9 11 11 11 9 3 5 1 1 2 4 2 2 2 3 4 5 5 2 1 5 3 4 6 5 3 2 5 4 4 11 9 7 8 7 7
12 12 11 10 9 8 8 8 8 9 10 9 9 6 4 5 3 2 4 4 4 2 1 3 4 3 4 2 3 2 4 7 8 6 2 4 7 9 9 9 9 8 7 7 6
14 13 12 11 9 9 8 9 9 9 9 7 7 3 5 5 4 5 5 3 3 1 2 2 0 2 3 3 3 3 3 3 3 11 4 4 7 3 11 10 9 9 8 7 5
17 15 14 12 10 9 9 9 8 9 9 6 3 2 4 1 3 7 7 5 6 5 3 2 1 1 2 3 4 5 5 7 4 8 6 8 5 5 8 8 9 9 9 8 7
19 17 15 13 11 10 9 8 8 10 5 3 3 3 6 2 4 5 6 9 3 7 3 3 3 3 3 5 5 6 5 6 6 8 6 7 11 6 9 9 10 10 9 8 8
18 18 17 13 11 9 5 5 3 3 6 8 6 2 4 4 5 5 5 7 5 4 6 6 4 7 12 11 11 9 7 8 4 4 5 9 10 10 12 9 10 10 10 9 9
21 18 15 13 10 7 4 5 4 1 6 15 14 7 6 7 4 6 10 7 5 7 8 3 9 12 9 9 6 9 9 9 8 7 3 7 11 9 13 14 17 14 11 11 9
25 22 14 11 8 9 9 6 2 2 5 7 13 8 6 11 7 13 10 5 6 8 10 11 3 4 13 5 5 7 8 7 8 4 4 6 8 13 11 14 14 10 10 10 14
30 25 19 12 7 11 9 19 4 2 4 7 8 7 9 7 7 7 23 5 6 11 8 10 13 3 6 8 8 8 7 11 7 3 4 6 5 7 9 13 16 15 10 11 13
35 29 25 28 5 13 6 17 14 1 5 1 9 2 8 11 11 1 1 2 9 8 7 5 7 9 7 6 8 4 5 0 3 6 5 5 7 6 13 16 16 16 10 10 12
32 31 33 29 23 12 10 18 7 4 12 4 5 7 8 8 3 4 2 2 1 5 5 4 2 4 5 4 1 9 5 2 1 1 6 13 13 6 12 16 9 11 13 12 13
18 32 36 30 17 22 20 14 6 8 5 10 7 8 9 8 5 6 10 10 9 7 10 6 9 4 3 5 4 5 6 2 2 1 7 1 10 16 5 3 6 17 17 15 15
21 18 37 38 27 25 23 10 7 20 27 8 6 9 10 8 7 8 10 9 14 10 4 11 6 17 9 12 7 9 9 5 7 5 4 3 7 6 0 6 4 13 16 16 16
15 22 23 33 39 33 9 12 14 15 16 17 8 5 9 6 7 8 10 10 13 20 14 7 7 6 6 5 7 5 8 10 4 1 2 6 7 8 5 3 1 10 15 17 17
9 9 17 29 39 26 15 17 14 24 6 30 21 12 14 13 9 14 14 8 10 23 11 2 3 1 3 5 4 4 4 4 2 3 6 5 10 10 6 11 8 12 17 17 17
8 3 6 30 35 9 14 13 21 16 20 19 17 23 16 11 14 10 10 5 19 15 22 4 2 1 6 8 12 4 4 5 4 5 4 5 7 4 14 15 18 15 17 18 19
4 5 8 36 11 4 16 26 13 15 10 17 12 24 19 18 14 16 14 8 16 17 19 11 1 5 9 4 0 5 8 9 5 6 6 2 20 4 6 10 13 16 16 17 18
3 5 10 27 12 14 6 25 24 16 17 14 15 17 16 18 18 20 11 7 13 17 18 12 5 0 4 2 2 6 8 16 13 1 21 5 15 3 5 5 9 13 14 15 16
3 4 5 8 7 15 20 23 21 21 22 26 17 15 8 14 20 6 15 6 16 15 10 14 5 11 17 6 8 7 11 18 18 11 6 25 19 3 5 5 7 10 14 15 16
4 5 3 4 12 19 17 8 21 17 27 21 22 20 20 11 20 24 9 2 5 7 9 12 11 11 21 18 6 6 10 20 24 28 16 27 24 20 10 12 15 10 12 14 16
2 4 2 4 11 9 14 12 15 19 15 29 25 28 28 22 23 19 14 16 7 5 8 1 8 12 22 12 15 19 14 18 22 24 27 30 34 4 11 12 9 13 15 16 17
8 2 1 4 5 6 5 4 5 11 20 27 29 26 28 35 30 23 10 7 6 12 10 7 3 5 19 8 13 11 35 23 24 25 23 25 36 11 11 10 11 12 13 13 12
Wind_Direction
136 73 18 356 0 357 1 358 358 359 1 359 356 351 345 337 332 345 309 269 250 250 154 331 296 301 272 129 287 276 307 253 241 255 122 131 143 11 37 116 58 32 62 100 110
209 234 293 317 331 340 340 344 350 356 356 353 351 346 344 338 332 275 276 271 252 168 42 256 234 217 196 154 255 279 300 1 0 39 89 155 207 149 180 130 113 102 98 102 92
245 258 275 294 303 317 325 335 341 348 346 346 344 343 342 336 286 68 303 227 156 154 357 308 308 288 258 350 113 12 311 357 39 33 357 115 258 43 220 203 41 163 125 108 92
255 265 275 293 305 311 317 325 334 338 339 340 341 340 334 349 336 244 107 152 153 152 225 217 250 233 270 208 81 296 66 5 51 42 346 126 69 174 237 101 74 70 106 111 85
255 263 269 279 292 301 308 315 327 335 336 338 340 341 356 254 71 68 142 150 135 120 245 255 274 325 266 64 40 229 127 69 82 119 289 46 271 236 133 121 98 101 106 100 91
251 256 264 270 279 292 301 309 319 327 333 339 343 343 307 260 103 194 176 149 129 218 176 268 358 8 300 347 279 11 356 245 160 204 189 227 256 134 162 134 129 149 119 102 106
253 252 256 262 273 284 296 304 311 320 327 338 348 358 265 260 174 204 143 154 173 292 259 41 349 288 11 188 82 348 292 224 220 207 263 154 275 231 151 148 150 163 130 126 129
251 257 254 255 265 276 286 294 305 314 320 327 336 359 267 217 181 183 156 107 127 126 44 115 24 19 340 111 212 237 197 240 310 162 157 170 267 259 134 155 168 169 155 154 139
251 251 257 255 260 271 281 291 305 306 307 313 353 276 258 116 173 178 176 157 129 118 111 127 224 305 134 225 256 193 256 218 161 174 129 189 276 158 153 180 180 174 170 175 147
253 255 254 255 256 266 279 299 300 296 304 275 252 312 181 151 132 165 180 159 141 143 124 202 210 204 208 198 217 217 213 242 245 201 185 192 256 183 187 198 192 184 177 174 169
259 254 249 252 250 264 286 304 239 191 220 207 180 237 130 118 132 178 156 151 152 211 189 203 205 206 212 216 248 290 303 297 287 143 191 223 244 230 191 202 217 194 178 179 171
249 248 244 245 241 246 220 251 92 58 298 229 256 251 147 173 136 176 173 178 189 200 209 106 234 237 234 244 249 239 262 265 286 128 191 267 265 263 182 205 205 205 181 172 139
239 237 224 225 231 221 224 217 197 49 255 240 207 203 176 170 207 176 183 211 189 210 202 207 191 223 229 225 230 244 238 250 244 153 224 293 272 254 251 213 204 213 178 168 157
230 223 208 193 220 214 221 215 210 87 270 234 191 223 145 168 227 157 191 166 189 212 220 234 246 202 211 212 188 247 221 230 258 310 240 148 280 260 269 241 197 200 177 158 156
239 219 201 187 160 191 217 201 174 189 283 6 137 82 151 178 132 176 124 76 188 188 182 210 166 163 198 189 192 216 30 104 234 249 300 266 272 252 223 252 217 192 173 162 160
253 235 206 197 212 205 188 164 135 175 237 166 123 147 148 225 78 103 129 337 342 220 246 244 336 202 198 64 22 129 90 90 33 206 254 229 226 225 238 229 218 180 179 166 156
257 241 211 191 206 205 175 147 161 217 189 197 164 164 198 171 135 165 174 184 176 175 207 209 216 173 155 104 17 170 135 251 293 231 242 284 225 245 251 315 202 182 178 169 161
263 264 231 208 200 192 169 156 201 225 225 86 120 155 183 143 177 190 168 195 229 229 161 197 222 175 191 208 161 188 182 162 234 213 265 332 237 244 306 38 14 162 166 165 165
264 259 233 216 206 189 187 198 196 223 202 240 123 171 196 174 139 167 203 216 197 203 194 192 227 101 135 192 158 181 213 227 352 58 334 218 261 283 166 158 48 149 161 172 171
251 258 234 216 201 187 205 202 232 218 293 203 214 182 180 175 182 186 182 209 220 195 215 269 213 3 61 73 320 197 161 102 195 236 246 247 248 242 225 220 190 187 180 175 172
243 213 245 207 193 201 216 216 231 232 219 244 238 228 227 176 188 197 214 225 192 177 193 177 163 114 122 204 178 134 214 220 168 188 225 279 257 302 201 197 195 194 185 181 179
239 233 202 176 204 211 220 222 220 227 252 243 255 245 247 220 194 197 216 199 179 156 188 184 165 174 207 123 132 223 184 192 170 225 234 217 258 13 7 186 176 186 183 181 183
240 253 235 187 221 220 228 237 238 221 219 237 240 238 238 226 230 206 206 221 174 170 171 166 184 159 313 93 18 199 200 207 218 69 233 198 256 333 11 77 169 170 180 183 179
265 243 206 225 242 232 225 232 233 225 239 221 229 248 232 237 234 214 212 193 172 183 183 155 159 196 228 222 144 194 201 209 203 227 201 233 247 221 218 195 181 186 181 178 180
221 241 258 211 225 231 242 237 230 226 216 213 229 217 227 230 240 237 193 67 16 156 173 178 212 221 241 238 231 189 198 206 210 224 213 251 242 240 223 202 209 184 170 175 183
239 231 198 288 237 253 238 214 232 230 218 220 223 218 220 225 227 219 218 212 188 174 170 289 234 212 246 225 239 252 240 211 222 231 239 251 255 203 231 202 154 178 175 184 186
205 240 250 207 228 234 186 205 252 254 239 232 224 226 222 223 225 231 239 248 200 174 176 147 136 165 246 209 242 250 235 231 228 226 223 238 249 212 232 184 183 178 174 185 193